Regional Weather Roundup
Issued by NWS

Home | Current Version | Previous Version | Graphics & Text | Print | Product List | Glossary On
Versions: 1 2 3 4 5 6 7 8 9 10 11 12 13 14 15 16 17 18 19 20 21 22 23 24 25 26 27 28 29 30 31 32 33 34 35 36 37 38 39 40 41 42 43 44 45 46 47 48 49 50
000
ASUS45 KABQ 181710
RWRNM
NEW MEXICO REGIONAL WEATHER ROUNDUP
NATIONAL WEATHER SERVICE ALBUQUERQUE NM
1000 AM MST WED JAN 18 2017

NOTE: "FAIR" MEANS FEW OR NO CLOUDS BELOW 12,000 FEET AGL WITH NO
       SIGNIFICANT WEATHER OR OBSTRUCTIONS TO VISION.

      THIS PRODUCT IS RELEASED AS TWO VERSIONS.  ONE VERSION NEAR
      THE TOP OF THE HOUR CONTAINING PRELIMINARY DATA FROM ALBUQUERQUE
      AND OTHER STATIONS.  A FINAL VERSION WITH ADDITIONAL DATA IS
      ISSUED ABOUT 10 MINUTES AFTER THE HOUR.

NMZ501-503-504-510>518-181800-
NORTHWEST PLATEAU/NORTHCENTRAL MOUNTAINS

CITY           SKY/WX    TMP DP  RH WIND       PRES   REMARKS
FARMINGTON     FOG       30  29  96 CALM      30.13S VSB 1/2
LOS ALAMOS     FAIR      33  29  85 E3        30.09F
SANTA FE       FAIR      35  32  88 CALM      30.08S
TAOS           CLOUDY    28  19  69 N12       30.10S WCI  18
ANGEL FIRE     CLOUDY    24  23  96 CALM      30.07R

$$
NMZ402-403-502-505>509-181800-
WESTCENTRAL MOUNTAINS/SOUTHWEST MOUNTAINS

CITY           SKY/WX    TMP DP  RH WIND       PRES   REMARKS
GALLUP         CLOUDY    31  30  96 CALM      30.16S
GRANTS         FAIR      36  32  85 NW5       30.16R WCI  32
SILVER CITY    PTSUNNY   43  38  83 W6        30.18R

$$
NMZ407-409-411-412-181800-
SOUTHERN DESERTS

CITY           SKY/WX    TMP DP  RH WIND       PRES   REMARKS
DEMING         FAIR      41  37  86 SW5       30.19R
LAS CRUCES     FOG       40  39  97 SE3       30.20R VSB 1/2
HOLLOMAN AFB   FOG       37  37 100 VRB3      30.21S VSB<1/4
ALAMOGORDO     FOG       39  39 100 SW5       30.19R VSB 1/4
T OR C         FOG       37  37 100 S9        30.15R VSB<1/4 WCI  30

$$
NMZ519>523-181800-
CENTRAL VALLEYS/CENTRAL HIGHLANDS

CITY           SKY/WX    TMP DP  RH WIND       PRES   REMARKS
ALBUQUERQUE    PTSUNNY   40  36  86 S5        30.13S
DOUBLE EAGLE   PTSUNNY   37  34  87 CALM      30.13R
MORIARTY ARPT  FAIR      41  31  68 W13       30.10S
CLINES CORNERS PTSUNNY   34  30  85 W18       30.07R WCI  23
BELEN          CLOUDY    36  36 100 S5        30.15S FOG     WCI  32
SOCORRO        CLOUDY    37  36  96 S3        30.16R

$$
NMZ524>526-539-540-181800-
SOUTHCENTRAL MOUNTAINS

CITY           SKY/WX    TMP DP  RH WIND       PRES   REMARKS
RUIDOSO        FAIR      36  36 100 CALM      30.15R

$$
NMZ527>531-181800-
NORTHEAST HIGHLANDS/NORTHEAST PLAINS

CITY           SKY/WX    TMP DP  RH WIND       PRES   REMARKS
LAS VEGAS      FAIR      34  27  75 S3        29.99F
RATON          CLOUDY    29  26  89 NE6       29.96S WCI  23
CLAYTON        FAIR      44  34  67 S14       29.95R

$$
NMZ532>537-181800-
EASTCENTRAL PLAINS

CITY           SKY/WX    TMP DP  RH WIND       PRES   REMARKS
TUCUMCARI      FAIR      47  36  65 SW12      30.00F
CANNON AFB     PTSUNNY   43  43 100 W15       30.06F
CLOVIS AIRPORT CLOUDY    43  41  93 W14       30.07R

$$
NMZ028-029-538-181800-
SOUTHEAST PLAINS

CITY           SKY/WX    TMP DP  RH WIND       PRES   REMARKS
ROSWELL        FAIR      45  41  86 S7        30.10S
ARTESIA        PTSUNNY   43  43 100 S6        30.13R FOG
CARLSBAD       FAIR      48  43  82 SE6       30.12S
HOBBS          PTSUNNY   46  43  87 S9        30.14S


$$



USA.gov is the U.S. government's official web portal to all federal, state and local government web resources and services.